KC3UTO Weather Reports


time (UTC)temp
F
wind
direction
speed
knots
gust
knots
rain 1hr
in
rain 24hr
in
rain mn
in
humidity
%
barometer
mb
20260506222151 66 315 0.9 1.7 0.00 0.29 0.29 83 1006.5
20260506221649 66 258 1.7 1.7 0.00 0.29 0.29 84 1006.5
20260506221147 66 33 0.9 1.7 0.00 0.29 0.29 84 1006.3
20260506220643 66 2 0.0 1.7 0.00 0.29 0.29 84 1006.6
20260506220138 66 284 0.0 1.7 0.00 0.29 0.29 84 1006.6
20260506215635 66 326 0.0 1.7 0.00 0.29 0.29 84 1006.6
20260506215131 66 31 0.0 2.6 0.00 0.29 0.29 83 1006.6
20260506214628 66 301 0.9 1.7 0.00 0.29 0.29 84 1006.5
20260506214125 66 265 1.7 5.2 0.00 0.29 0.29 83 1006.7
20260506213624 66 325 1.7 1.7 0.00 0.29 0.29 84 1006.4
20260506213120 66 241 0.9 2.6 0.00 0.29 0.29 83 1006.3
20260506212618 66 280 1.7 2.6 0.00 0.29 0.29 83 1006.4
20260506212112 66 254 1.7 4.3 0.00 0.29 0.29 83 1006.1
20260506211608 66 244 1.7 2.6 0.00 0.29 0.29 85 1006.3
20260506211106 65 235 0.0 1.7 0.00 0.29 0.29 86 1006.2
20260506210602 65 277 0.9 4.3 0.00 0.29 0.29 86 1006.2
20260506210059 64 228 1.7 2.6 0.00 0.29 0.29 87 1006.3
20260506205555 64 254 0.0 1.7 0.00 0.29 0.29 89 1006.3
20260506205050 64 335 0.9 2.6 0.00 0.29 0.29 88 1006.4
20260506204549 63 326 0.0 1.7 0.00 0.29 0.29 89 1006.2
20260506204045 63 321 0.0 1.7 0.00 0.29 0.29 89 1006.3
20260506203544 63 296 0.0 1.7 0.00 0.29 0.29 89 1006.5
20260506203040 63 308 1.7 1.7 0.00 0.29 0.29 89 1006.3
20260506202538 63 286 0.0 1.7 0.00 0.29 0.29 89 1006.3
20260506202033 63 37 1.7 3.5 0.00 0.29 0.29 89 1006.3
20260506201532 63 302 1.7 1.7 0.00 0.29 0.29 89 1006.2
20260506201028 63 322 0.9 1.7 0.00 0.29 0.29 90 1006.1
20260506200524 63 91 1.7 2.6 0.00 0.29 0.29 89 1006.2
20260506200021 63 253 2.6 5.2 0.00 0.29 0.29 90 1006.1
20260506195518 63 3 0.9 1.7 0.00 0.29 0.29 90 1006.3
20260506195014 63 239 5.2 5.2 0.00 0.29 0.29 91 1006.2
20260506194512 62 289 1.7 7.0 0.00 0.29 0.29 90 1006.2
20260506194008 62 256 1.7 5.2 0.00 0.29 0.29 91 1006.3
20260506193506 62 254 1.7 1.7 0.00 0.29 0.29 92 1006.6
20260506193002 62 50 0.9 1.7 0.00 0.29 0.29 92 1006.4
20260506192459 62 256 0.9 2.6 0.00 0.29 0.29 92 1006.8
20260506191955 62 16 0.0 5.2 0.00 0.29 0.29 92 1006.5
20260506191452 62 23 1.7 3.5 0.00 0.29 0.29 92 1006.6
20260506190948 62 238 1.7 3.5 0.00 0.29 0.29 92 1006.7
20260506190446 61 82 0.9 3.5 0.00 0.29 0.29 92 1006.8
20260506185942 61 235 3.5 3.5 0.00 0.29 0.29 92 1006.8
20260506185439 61 299 0.9 3.5 0.00 0.29 0.29 92 1006.8
20260506184936 61 5 0.9 2.6 0.00 0.29 0.29 93 1006.8
20260506184433 61 262 0.0 5.2 0.00 0.29 0.29 92 1007.0
20260506183931 61 282 1.7 7.0 0.02 0.29 0.29 92 1007.0
20260506183426 61 281 0.9 2.6 0.02 0.29 0.29 93 1007.2
20260506182923 61 280 1.7 2.6 0.00 0.29 0.29 93 1007.2
20260506182420 60 308 1.7 5.2 0.00 0.29 0.29 93 1007.1
20260506181918 60 269 0.0 2.6 0.02 0.29 0.29 93 1007.2
20260506181415 60 236 0.0 3.5 0.02 0.29 0.29 93 1007.2
20260506180912 61 289 2.6 6.1 0.00 0.29 0.29 92 1007.1
20260506180408 60 225 3.5 5.2 0.00 0.29 0.29 92 1007.1
20260506175905 60 248 1.7 3.5 0.00 0.29 0.29 93 1007.4
20260506175402 60 322 0.9 4.3 0.00 0.29 0.29 93 1007.1
20260506174859 60 240 1.7 2.6 0.00 0.29 0.29 93 1007.4
20260506174356 60 261 2.6 2.6 0.00 0.29 0.29 93 1007.2
20260506173854 60 237 2.6 4.3 0.00 0.29 0.29 93 1007.2
20260506173350 60 311 0.0 5.2 0.02 0.29 0.29 93 1007.3
20260506172847 60 264 2.6 4.3 0.09 0.29 0.29 93 1007.3
20260506172344 60 115 1.7 4.3 0.14 0.28 0.28 93 1007.3
20260506171842 60 288 1.7 3.5 0.17 0.27 0.27 93 1007.2
20260506171338 60 8 0.9 2.6 0.14 0.26 0.26 93 1007.4
20260506170836 60 28 1.7 6.1 0.09 0.24 0.24 92 1007.4
20260506170332 61 238 1.7 2.6 0.00 0.22 0.22 92 1007.6
20260506165832 61 230 2.6 5.2 0.00 0.22 0.22 92 1007.6
20260506165329 61 249 5.2 7.0 0.00 0.22 0.22 92 1007.6
20260506164825 61 224 0.0 7.0 0.02 0.22 0.22 92 1007.6
20260506164322 61 339 1.7 7.0 0.02 0.22 0.22 92 1007.6
20260506163819 61 220 5.2 6.1 0.02 0.22 0.22 92 1007.6
20260506163314 61 229 6.1 7.8 0.05 0.22 0.22 92 1007.8
20260506162809 61 46 0.0 3.5 0.07 0.22 0.22 93 1007.4
20260506162308 61 293 0.9 7.0 0.07 0.21 0.21 93 1007.0
20260506161805 61 89 2.6 3.5 0.05 0.20 0.20 93 1006.8
20260506161302 61 263 0.9 3.5 0.05 0.20 0.20 92 1006.9
20260506160800 61 175 0.9 5.2 0.05 0.20 0.20 92 1007.6
20260506160256 61 88 2.6 3.5 0.07 0.19 0.19 92 1007.9
20260506155755 61 77 2.6 7.8 0.09 0.19 0.19 92 1008.3
20260506155251 61 229 3.5 3.5 0.07 0.18 0.18 92 1008.2
20260506153404 61 224 3.5 4.3 0.09 0.15 0.15 91 1008.4
20260506152901 61 96 2.6 3.5 0.09 0.14 0.14 91 1008.7
20260506152358 61 123 1.7 10.4 0.07 0.13 0.13 91 1008.7
20260506151857 61 235 1.7 3.5 0.09 0.12 0.12 90 1008.8
20260506151353 61 251 2.6 3.5 0.09 0.12 0.12 90 1008.9
20260506150851 62 225 3.5 7.8 0.07 0.11 0.11 90 1008.5
20260506150347 62 330 1.7 5.2 0.07 0.10 0.10 90 1008.6
20260506145844 62 18 0.9 1.7 0.05 0.09 0.09 90 1008.5
20260506145340 62 214 7.0 7.0 0.05 0.09 0.09 90 1008.5
20260506144838 62 57 1.7 4.3 0.09 0.08 0.08 89 1008.2
20260506144334 62 10 0.9 3.5 0.14 0.08 0.08 89 1008.5
20260506143833 62 172 2.6 3.5 0.12 0.06 0.06 88 1008.3
20260506143329 62 244 4.3 6.1 0.12 0.06 0.06 87 1008.3
20260506142828 62 30 1.7 5.2 0.14 0.05 0.05 86 1008.4
20260506142325 62 68 1.7 5.2 0.14 0.04 0.04 85 1008.3
20260506141823 63 245 0.9 3.5 0.09 0.02 0.02 84 1008.5
20260506141321 63 47 0.9 4.3 0.05 0.01 0.01 82 1008.6
20260506140819 63 348 0.9 3.5 0.02 0.01 0.01 81 1008.5
20260506140315 64 32 0.9 9.6 0.00 0.00 0.00 79 1008.6
20260506135812 64 250 1.7 3.5 0.00 0.00 0.00 79 1008.3
20260506135308 65 63 1.7 4.3 0.00 0.00 0.00 78 1008.2
20260506134805 65 243 1.7 7.0 0.00 0.00 0.00 79 1008.1
20260506134302 65 207 1.7 4.3 0.02 0.00 0.00 78 1008.3
20260506133759 65 48 0.9 6.1 0.02 0.00 0.00 78 1008.3
20260506133256 65 343 0.0 1.7 0.00 0.00 0.00 78 1008.5
20260506132752 64 60 1.7 2.6 0.00 0.00 0.00 77 1008.6
20260506132250 65 236 2.6 5.2 0.00 0.00 0.00 76 1008.2
20260506131748 65 258 1.7 4.3 0.00 0.00 0.00 75 1008.6
20260506131243 65 213 4.3 5.2 0.00 0.00 0.00 75 1008.6
20260506130740 65 28 0.9 1.7 0.00 0.00 0.00 75 1008.6
20260506130237 65 251 0.0 2.6 0.00 0.00 0.00 75 1008.7
20260506125735 65 63 0.9 8.7 0.00 0.00 0.00 75 1008.8
20260506125233 65 225 5.2 7.0 0.00 0.00 0.00 73 1008.6
20260506124731 65 241 4.3 7.0 0.00 0.00 0.00 73 1008.6
20260506124228 66 206 3.5 8.7 0.00 0.00 0.00 72 1008.7
20260506123726 66 342 0.0 4.3 0.00 0.00 0.00 71 1008.7
20260506123224 66 270 1.7 6.1 0.00 0.00 0.00 70 1008.6
20260506122721 66 245 3.5 5.2 0.00 0.00 0.00 70 1008.5
20260506122218 66 91 1.7 3.5 0.00 0.00 0.00 69 1008.4
20260506121716 66 85 2.6 4.3 0.00 0.00 0.00 69 1008.3
20260506121212 66 332 0.9 5.2 0.00 0.00 0.00 69 1008.2
20260506120710 66 27 1.7 7.8 0.00 0.00 0.00 69 1008.4
20260506120208 66 251 2.6 7.8 0.00 0.00 0.00 69 1008.4
20260506115706 66 147 0.0 1.7 0.00 0.00 0.00 70 1008.3
20260506115203 66 227 3.5 5.2 0.00 0.00 0.00 69 1008.4
20260506114700 66 22 0.0 4.3 0.00 0.00 0.00 70 1008.3
20260506114158 66 43 1.7 3.5 0.00 0.00 0.00 70 1008.3
20260506113657 65 321 1.7 8.7 0.00 0.00 0.00 70 1008.4
20260506113154 66 87 0.0 6.1 0.00 0.00 0.00 70 1008.3
20260506112649 66 230 0.9 7.8 0.00 0.00 0.00 70 1008.2
20260506112147 66 232 2.6 7.0 0.00 0.00 0.00 70 1008.2
20260506111645 66 347 1.7 3.5 0.00 0.00 0.00 69 1008.1
20260506111142 66 36 1.7 3.5 0.00 0.00 0.00 70 1008.3
20260506110639 66 247 1.7 6.1 0.00 0.00 0.00 69 1008.3
20260506110137 66 276 1.7 5.2 0.00 0.00 0.00 69 1008.4
20260506105633 66 51 0.0 5.2 0.00 0.00 0.00 69 1008.0
20260506105130 66 85 2.6 3.5 0.00 0.00 0.00 69 1007.9
20260506104629 66 298 2.6 7.0 0.00 0.00 0.00 69 1008.0
20260506104126 66 252 0.0 12.2 0.00 0.00 0.00 69 1008.2
20260506103623 66 194 4.3 12.2 0.00 0.00 0.00 69 1008.0
20260506103120 65 66 0.9 12.2 0.00 0.00 0.00 69 1007.8
20260506102618 65 53 1.7 3.5 0.00 0.00 0.00 70 1007.8
20260506102115 66 55 0.9 5.2 0.00 0.00 0.00 69 1007.7
20260506101612 65 127 1.7 3.5 0.00 0.00 0.00 70 1007.8
20260506101108 66 75 1.7 4.3 0.00 0.00 0.00 69 1007.7
20260506100607 66 219 3.5 7.8 0.00 0.00 0.00 69 1007.7
20260506100104 66 3 0.9 2.6 0.00 0.00 0.00 69 1007.7
20260506095603 66 106 1.7 3.5 0.00 0.00 0.00 69 1007.7
20260506095059 66 31 1.7 2.6 0.00 0.00 0.00 69 1007.9
20260506094557 66 251 4.3 6.1 0.00 0.00 0.00 70 1007.9
20260506094055 66 246 1.7 2.6 0.00 0.00 0.00 69 1007.9
20260506093553 66 277 1.7 2.6 0.00 0.00 0.00 69 1007.8
20260506093050 66 25 0.9 7.0 0.00 0.00 0.00 69 1007.8
20260506092548 66 233 3.5 3.5 0.00 0.00 0.00 69 1007.9
20260506092044 66 56 1.7 2.6 0.00 0.00 0.00 69 1007.8
20260506091543 66 45 0.0 2.6 0.00 0.00 0.00 69 1008.0
20260506091039 66 243 1.7 3.5 0.00 0.00 0.00 68 1007.9
20260506090537 66 22 1.7 6.1 0.00 0.00 0.00 68 1008.2
20260506090033 66 43 0.9 3.5 0.00 0.00 0.00 67 1007.9
20260506085530 66 89 1.7 1.7 0.00 0.00 0.00 67 1007.9
20260506085027 66 224 2.6 6.1 0.00 0.00 0.00 67 1008.1
20260506084524 66 56 0.9 3.5 0.00 0.00 0.00 67 1008.1
20260506084020 66 146 1.7 3.5 0.00 0.00 0.00 67 1008.1
20260506083517 66 321 2.6 2.6 0.00 0.00 0.00 66 1008.1
20260506083015 66 254 0.9 4.3 0.00 0.00 0.00 66 1008.0
20260506082511 67 245 1.7 6.1 0.00 0.00 0.00 66 1008.3
20260506082007 66 149 1.7 3.5 0.00 0.00 0.00 66 1008.1
20260506081505 67 218 4.3 4.3 0.00 0.00 0.00 65 1007.9
20260506081003 67 279 0.9 8.7 0.00 0.00 0.00 65 1008.1
20260506080500 67 17 1.7 3.5 0.00 0.00 0.00 65 1008.1
20260506073443 66 287 0.9 3.5 0.00 0.00 0.00 63 1008.1
20260506072941 66 223 0.9 5.2 0.00 0.00 0.00 63 1008.3
20260506072437 66 266 2.6 2.6 0.00 0.00 0.00 63 1008.3
20260506071936 66 240 4.3 6.1 0.00 0.00 0.00 63 1008.2
20260506071433 66 74 1.7 3.5 0.00 0.00 0.00 63 1008.3
20260506070930 66 42 0.0 2.6 0.00 0.00 0.00 62 1008.2
20260506070427 66 302 0.9 4.3 0.00 0.00 0.00 62 1008.4
20260506062404 67 57 1.7 1.7 0.00 0.00 0.00 59 1008.8
20260506061900 67 36 0.9 2.6 0.00 0.00 0.00 59 1008.7
20260506061357 66 283 1.7 2.6 0.00 0.00 0.00 59 1008.8
20260506060855 66 34 0.9 1.7 0.00 0.00 0.00 60 1008.8
20260506060353 66 6 0.0 1.7 0.00 0.00 0.00 61 1008.9
20260506051325 66 54 0.0 2.6 0.00 0.00 0.00 60 1009.2
20260506050823 66 63 0.9 1.7 0.00 0.00 0.00 60 1009.4
20260506050319 66 61 1.7 2.6 0.00 0.00 0.00 61 1009.4
20260506044810 66 35 1.7 1.7 0.00 0.00 0.00 59 1009.3
20260506044307 66 29 0.9 1.7 0.00 0.00 0.00 59 1009.5
20260506043804 66 49 1.7 1.7 0.00 0.00 0.00 59 1009.3
20260506043301 66 36 0.0 1.7 0.00 0.00 0.00 59 1009.2
20260506042801 66 37 0.9 1.7 0.00 0.00 0.00 58 1009.4
20260506042259 66 305 0.0 1.7 0.00 0.00 0.00 57 1009.5
20260506041757 67 41 0.9 1.7 0.00 0.00 0.00 57 1009.5
20260506041253 67 48 1.7 1.7 0.00 0.00 0.00 56 1009.2
20260506040751 67 17 0.9 1.7 0.00 0.00 0.00 55 1009.1
20260506040248 67 58 1.7 1.7 0.00 0.00 0.00 55 1009.2
20260506035745 68 39 0.9 1.7 0.00 0.00 0.00 54 1009.4
20260506035242 68 16 0.9 1.7 0.00 0.00 0.00 53 1009.2
20260506034738 68 43 0.0 1.7 0.00 0.00 0.00 53 1009.0
20260506034236 68 9 0.9 1.7 0.00 0.00 0.00 53 1009.3
20260506033733 68 47 2.6 2.6 0.00 0.00 0.00 52 1009.2
20260506033230 68 55 1.7 1.7 0.00 0.00 0.00 52 1009.1
20260506032727 69 69 0.0 1.7 0.00 0.00 0.00 51 1009.1
20260506032223 69 50 1.7 1.7 0.00 0.00 0.00 51 1008.9
20260506031720 69 53 1.7 1.7 0.00 0.00 0.00 50 1009.1
20260506031218 69 53 0.0 1.7 0.00 0.00 0.00 50 1009.3
20260506030716 69 11 2.6 2.6 0.00 0.00 0.00 50 1009.1
20260506030213 69 35 0.9 1.7 0.00 0.00 0.00 50 1009.0
20260506025709 69 190 0.9 1.7 0.00 0.00 0.00 49 1009.1
20260506025206 70 29 0.0 1.7 0.00 0.00 0.00 49 1009.2
20260506024703 70 24 0.9 1.7 0.00 0.00 0.00 48 1009.2
20260506024159 70 31 0.9 1.7 0.00 0.00 0.00 48 1009.0
20260506023656 71 11 1.7 2.6 0.00 0.00 0.00 47 1009.2
20260506023153 71 301 0.0 1.7 0.00 0.00 0.00 46 1009.1
20260506022650 71 22 1.7 2.6 0.00 0.00 0.00 45 1009.2
20260506022148 71 334 1.7 3.5 0.00 0.00 0.00 45 1009.1
20260506021646 71 234 0.0 2.6 0.00 0.00 0.00 45 1009.1
20260506021142 72 246 2.6 4.3 0.00 0.00 0.00 44 1009.0
20260506020639 72 66 1.7 1.7 0.00 0.00 0.00 44 1009.1
20260506020137 72 1 0.9 2.6 0.00 0.00 0.00 44 1009.2
20260506015634 72 186 1.7 4.3 0.00 0.00 0.00 44 1009.0
20260506015131 72 10 0.9 2.6 0.00 0.00 0.00 44 1008.9
20260506014629 73 13 0.0 2.6 0.00 0.00 0.00 43 1008.7
20260506014124 73 238 0.0 1.7 0.00 0.00 0.00 42 1008.8
20260506013623 74 89 1.7 5.2 0.00 0.00 0.00 41 1008.8
20260506013119 74 240 3.5 8.7 0.00 0.00 0.00 40 1008.9
20260506012616 74 50 0.0 4.3 0.00 0.00 0.00 41 1008.5
20260506012112 74 13 0.9 1.7 0.00 0.00 0.00 41 1008.4
20260506011610 74 99 0.0 9.6 0.00 0.00 0.00 40 1008.5
20260506011106 74 125 0.9 1.7 0.00 0.00 0.00 40 1008.4
20260506010606 74 74 0.9 3.5 0.00 0.00 0.00 39 1008.3
20260506005559 75 302 0.0 7.8 0.00 0.00 0.00 38 1008.3
20260506005055 75 341 0.9 2.6 0.00 0.00 0.00 38 1008.2
20260506004552 75 245 0.9 2.6 0.00 0.00 0.00 38 1008.2
20260506004049 75 235 4.3 5.2 0.00 0.00 0.00 38 1008.2
20260506003545 75 94 1.7 3.5 0.00 0.00 0.00 39 1008.3
20260506003042 75 256 1.7 3.5 0.00 0.00 0.00 38 1007.9
20260506002537 75 43 0.9 2.6 0.00 0.00 0.00 38 1008.1
20260506002033 75 256 5.2 5.2 0.00 0.00 0.00 37 1007.9
20260506001530 75 353 0.0 2.6 0.00 0.00 0.00 37 1007.9
20260506001027 76 230 3.5 5.2 0.00 0.00 0.00 37 1007.9
20260506000525 76 40 1.7 2.6 0.00 0.00 0.00 37 1007.8
20260506000022 76 309 0.0 2.6 0.00 0.00 0.00 37 1007.8
20260505235520 76 264 1.7 4.3 0.00 0.00 0.00 36 1007.7
20260505235016 77 79 0.0 2.6 0.00 0.00 0.00 36 1007.7
20260505234514 77 96 1.7 4.3 0.00 0.00 0.00 35 1007.9
20260505234010 77 225 5.2 8.7 0.00 0.00 0.00 36 1007.5
20260505233508 77 269 0.9 3.5 0.00 0.00 0.00 35 1007.6
20260505233005 77 342 1.7 11.3 0.00 0.00 0.00 35 1007.7
20260505232503 77 284 2.6 5.2 0.00 0.00 0.00 35 1007.9
20260505232000 77 211 5.2 7.8 0.00 0.00 0.00 35 1007.5
20260505231457 78 260 1.7 8.7 0.00 0.00 0.00 35 1007.5
20260505230955 78 258 2.6 8.7 0.00 0.00 0.00 35 1007.6
20260505230453 78 77 2.6 7.8 0.00 0.00 0.00 35 1007.4
20260505225949 78 46 1.7 3.5 0.00 0.00 0.00 36 1007.5
20260505225446 78 256 1.7 7.8 0.00 0.00 0.00 35 1007.5
20260505224942 79 233 3.5 4.3 0.00 0.00 0.00 34 1007.7
20260505224439 79 228 8.7 8.7 0.00 0.00 0.00 33 1007.2
20260505223936 79 280 2.6 9.6 0.00 0.00 0.00 33 1007.3
20260505223433 80 250 4.3 7.8 0.00 0.00 0.00 32 1007.4
20260505222929 80 243 1.7 10.4 0.00 0.00 0.00 31 1007.2
20260505222426 80 231 7.8 17.4 0.00 0.00 0.00 30 1007.2